HG5PBP-13 Weather Reports


time (UTC)temp
F
wind
direction
speed
knots
gust
knots
rain 1hr
in
rain 24hr
in
rain mn
in
humidity
%
barometer
mb
20260506102925 68 205 2.6 13.0 0.00 0.00 0.00 5 1008.9
20260506102425 67 130 2.6 12.2 0.00 0.00 0.00 5 1009.0
20260506101925 67 171 2.6 12.2 0.00 0.00 0.00 5 1009.1
20260506101425 66 324 4.3 10.4 0.00 0.00 0.00 6 1008.9
20260506100925 65 104 6.1 9.6 0.00 0.00 0.00 6 1009.0
20260506100425 65 229 6.1 13.0 0.00 0.00 0.00 6 1009.1
20260506095925 65 179 3.5 7.0 0.00 0.00 0.00 6 1009.2
20260506095425 65 188 7.0 15.6 0.00 0.00 0.00 6 1009.4
20260506094924 65 222 5.2 8.7 0.00 0.00 0.00 6 1009.0
20260506094425 65 143 5.2 14.8 0.00 0.00 0.00 6 1009.2
20260506093924 64 203 4.3 10.4 0.00 0.00 0.00 6 1009.2
20260506093424 64 189 8.7 10.4 0.00 0.00 0.00 6 1009.3
20260506092924 64 245 3.5 8.7 0.00 0.00 0.00 6 1009.0
20260506092424 64 208 2.6 8.7 0.00 0.00 0.00 6 1009.0
20260506091924 64 204 6.1 19.1 0.00 0.00 0.00 6 1009.3
20260506091424 64 156 8.7 15.6 0.00 0.00 0.00 6 1009.2
20260506090924 64 191 8.7 12.2 0.00 0.00 0.00 6 1009.2
20260506090424 64 313 4.3 12.2 0.00 0.00 0.00 6 1009.2
20260506085924 64 209 3.5 8.7 0.00 0.00 0.00 6 1009.2
20260506085424 64 162 5.2 9.6 0.00 0.00 0.00 6 1009.2
20260506084924 64 134 3.5 11.3 0.00 0.00 0.00 6 1009.1
20260506084424 64 173 6.1 16.5 0.00 0.00 0.00 6 1009.6
20260506083924 63 140 7.0 14.8 0.00 0.00 0.00 6 1009.2
20260506083424 63 188 4.3 9.6 0.00 0.00 0.00 6 1009.4
20260506082924 62 153 8.7 10.4 0.00 0.00 0.00 6 1009.2
20260506082424 62 149 7.0 10.4 0.00 0.00 0.00 6 1009.3
20260506081924 62 127 3.5 7.8 0.00 0.00 0.00 6 1009.3
20260506081424 61 114 1.7 7.8 0.00 0.00 0.00 6 1009.4
20260506080924 61 175 1.7 7.8 0.00 0.00 0.00 6 1009.5
20260506080424 61 148 7.0 9.6 0.00 0.00 0.00 6 1009.4
20260506073424 59 147 1.7 12.2 0.00 0.00 0.00 6 1009.7
20260506072924 59 207 3.5 4.3 0.00 0.00 0.00 6 1009.5
20260506072424 59 261 1.7 7.0 0.00 0.00 0.00 7 1009.6
20260506071924 58 276 2.6 7.8 0.00 0.00 0.00 7 1009.6
20260506071424 58 201 2.6 5.2 0.00 0.00 0.00 7 1009.7
20260506070923 58 157 2.6 5.2 0.00 0.00 0.00 7 1009.6
20260506070423 57 206 7.8 12.2 0.00 0.00 0.00 7 1009.6
20260506062423 55 243 4.3 9.6 0.00 0.00 0.00 7 1009.9
20260506061923 55 186 0.9 8.7 0.00 0.00 0.00 7 1009.9
20260506061423 55 215 6.1 9.6 0.00 0.00 0.00 7 1010.0
20260506060923 55 246 1.7 5.2 0.00 0.00 0.00 7 1009.7
20260506060423 55 182 1.7 7.0 0.00 0.00 0.00 7 1009.7
20260506050923 53 228 1.7 10.4 0.00 0.00 0.00 7 1009.9
20260506050423 53 207 0.9 7.8 0.00 0.00 0.00 7 1009.8
20260506044923 52 252 1.7 7.0 0.00 0.00 0.00 7 1009.5
20260506044423 52 255 3.5 4.3 0.00 0.00 0.00 7 1009.7
20260506043922 52 199 0.9 7.8 0.00 0.00 0.00 7 1009.8
20260506043422 52 243 4.3 7.0 0.00 0.00 0.00 7 1009.7
20260506042922 52 260 3.5 5.2 0.00 0.00 0.00 7 1009.4
20260506042422 52 266 1.7 5.2 0.00 0.00 0.00 7 1009.4
20260506041922 52 237 2.6 4.3 0.00 0.00 0.00 7 1009.5
20260506041422 52 167 0.9 5.2 0.00 0.00 0.00 7 1009.3
20260506040922 52 227 2.6 4.3 0.00 0.00 0.00 7 1009.4
20260506040422 52 222 2.6 7.0 0.00 0.00 0.00 7 1009.3
20260506035922 52 262 0.0 5.2 0.00 0.00 0.00 7 1009.4
20260506035422 51 229 2.6 4.3 0.00 0.00 0.00 7 1009.7
20260506034922 51 255 1.7 4.3 0.00 0.00 0.00 7 1009.4
20260506034422 52 251 1.7 3.5 0.00 0.00 0.00 7 1009.2
20260506033922 52 231 2.6 4.3 0.00 0.00 0.00 7 1009.7
20260506033422 52 228 0.9 5.2 0.00 0.00 0.00 7 1009.6
20260506032922 52 227 0.9 2.6 0.00 0.00 0.00 7 1009.1
20260506032422 52 272 2.6 3.5 0.00 0.00 0.00 7 1009.3
20260506031922 52 252 0.9 2.6 0.00 0.00 0.00 7 1009.3
20260506031422 52 225 0.9 3.5 0.00 0.00 0.00 7 1009.1
20260506030922 52 253 0.9 2.6 0.00 0.00 0.00 7 1009.2
20260506030422 52 246 2.6 3.5 0.00 0.00 0.00 7 1009.2
20260506025922 52 179 3.5 5.2 0.00 0.00 0.00 7 1009.0
20260506025422 53 215 1.7 5.2 0.00 0.00 0.00 7 1009.3
20260506024922 53 225 3.5 5.2 0.00 0.00 0.00 7 1009.0
20260506024422 53 240 1.7 3.5 0.00 0.00 0.00 7 1008.9
20260506023922 53 147 1.7 7.8 0.00 0.00 0.00 7 1009.1
20260506023422 53 235 0.9 3.5 0.00 0.00 0.00 7 1009.1
20260506022925 53 153 2.6 5.2 0.00 0.00 0.00 7 1009.1
20260506022422 53 128 2.6 5.2 0.00 0.00 0.00 7 1009.2
20260506021922 53 272 1.7 4.3 0.00 0.00 0.00 7 1009.3
20260506021422 53 228 1.7 5.2 0.00 0.00 0.00 7 1009.3
20260506020921 53 241 0.9 4.3 0.00 0.00 0.00 7 1009.3
20260506020422 54 216 0.9 5.2 0.00 0.00 0.00 7 1009.0
20260506015921 54 177 0.9 7.0 0.00 0.00 0.00 7 1009.0
20260506015421 54 226 1.7 3.5 0.00 0.00 0.00 7 1009.1
20260506014921 54 218 0.9 4.3 0.00 0.00 0.00 7 1009.2
20260506014421 54 180 3.5 4.3 0.00 0.00 0.00 7 1009.4
20260506013921 54 269 7.0 9.6 0.00 0.00 0.00 7 1009.5
20260506013421 54 227 3.5 8.7 0.00 0.00 0.00 7 1009.4
20260506012921 54 206 3.5 4.3 0.00 0.00 0.00 7 1009.4
20260506012421 54 251 1.7 3.5 0.00 0.00 0.00 7 1009.4
20260506011921 54 165 5.2 11.3 0.00 0.00 0.00 6 1009.3
20260506011421 54 247 5.2 7.8 0.00 0.00 0.00 6 1009.3
20260506010921 54 140 3.5 4.3 0.00 0.00 0.00 7 1009.3
20260506010421 54 229 7.0 10.4 0.00 0.00 0.00 6 1009.1
20260506005921 55 181 3.5 5.2 0.00 0.00 0.00 6 1009.3
20260506005421 55 224 4.3 5.2 0.00 0.00 0.00 6 1009.4
20260506004921 55 207 4.3 7.8 0.00 0.00 0.00 6 1009.1
20260506004421 55 235 3.5 8.7 0.00 0.00 0.00 6 1009.2
20260506003921 55 186 7.0 10.4 0.00 0.00 0.00 6 1009.3
20260506003421 55 180 5.2 8.7 0.00 0.00 0.00 6 1009.4
20260506002921 55 211 4.3 7.8 0.00 0.00 0.00 6 1009.4
20260506002421 55 173 3.5 7.0 0.00 0.00 0.00 6 1009.1
20260506001921 55 160 2.6 8.7 0.00 0.00 0.00 6 1009.2
20260506001426 55 242 2.6 7.0 0.00 0.00 0.00 6 1009.0
20260506000921 56 219 1.7 10.4 0.00 0.00 0.00 6 1009.1
20260506000423 56 223 4.3 11.3 0.00 0.00 0.00 6 1009.3
20260505235921 56 204 5.2 8.7 0.00 0.00 0.00 6 1009.2
20260505235421 56 296 6.1 8.7 0.00 0.00 0.00 6 1009.5
20260505234921 56 222 3.5 7.0 0.00 0.00 0.00 6 1009.4
20260505234420 56 234 6.1 8.7 0.00 0.00 0.00 6 1009.7
20260505233921 56 163 3.5 8.7 0.00 0.00 0.00 6 1009.2
20260505233421 56 299 2.6 7.8 0.00 0.00 0.00 6 1009.6
20260505232920 57 172 1.7 13.0 0.00 0.00 0.00 6 1009.2
20260505232420 57 176 4.3 7.8 0.00 0.00 0.00 6 1009.5
20260505231920 57 152 5.2 8.7 0.00 0.00 0.00 6 1009.4
20260505231420 57 272 1.7 7.8 0.00 0.00 0.00 6 1009.3
20260505230920 57 258 2.6 7.8 0.00 0.00 0.00 6 1009.3
20260505230420 57 239 2.6 7.8 0.00 0.00 0.00 6 1009.5
20260505225920 57 237 2.6 7.8 0.00 0.00 0.00 6 1009.4
20260505225420 57 270 3.5 7.0 0.00 0.00 0.00 6 1009.6
20260505224920 57 250 1.7 7.0 0.00 0.00 0.00 6 1009.4
20260505224420 58 52 0.9 8.7 0.00 0.00 0.00 6 1009.4
20260505223920 58 280 6.1 7.8 0.00 0.00 0.00 6 1009.2
20260505223420 58 263 4.3 7.8 0.00 0.00 0.00 6 1009.4
20260505222920 58 265 4.3 7.8 0.00 0.00 0.00 6 1009.4
20260505222420 58 279 0.9 8.7 0.00 0.00 0.00 6 1009.2
20260505221920 58 216 5.2 8.7 0.00 0.00 0.00 6 1009.4
20260505221420 58 256 2.6 7.8 0.00 0.00 0.00 6 1009.2
20260505220920 58 179 1.7 7.8 0.00 0.00 0.00 6 1009.2
20260505220420 58 168 1.7 7.0 0.00 0.00 0.00 6 1009.4
20260505215920 58 192 1.7 7.0 0.00 0.00 0.00 6 1009.5
20260505215420 58 37 2.6 7.8 0.00 0.00 0.00 6 1009.1
20260505214920 58 233 4.3 8.7 0.00 0.00 0.00 6 1009.5
20260505214420 59 277 2.6 8.7 0.00 0.00 0.00 6 1009.4
20260505213920 59 234 1.7 5.2 0.00 0.00 0.00 6 1009.2
20260505213420 59 211 4.3 8.7 0.00 0.00 0.00 6 1009.4
20260505212920 59 262 3.5 13.0 0.00 0.00 0.00 6 1009.2
20260505212420 59 184 3.5 7.8 0.00 0.00 0.00 6 1009.3
20260505211920 59 247 6.1 10.4 0.00 0.00 0.00 6 1009.2
20260505211420 59 323 1.7 8.7 0.00 0.00 0.00 5 1009.3
20260505210920 59 247 2.6 11.3 0.00 0.00 0.00 6 1009.3
20260505210420 59 231 5.2 9.6 0.00 0.00 0.00 6 1009.0
20260505205919 60 257 3.5 9.6 0.00 0.00 0.00 6 1009.4
20260505205419 60 170 1.7 5.2 0.00 0.00 0.00 6 1009.3
20260505204919 60 243 2.6 7.0 0.00 0.00 0.00 5 1009.2
20260505204419 60 214 2.6 5.2 0.00 0.00 0.00 5 1009.7
20260505203919 60 255 2.6 9.6 0.00 0.00 0.00 5 1009.3
20260505203419 60 50 1.7 8.7 0.00 0.00 0.00 5 1009.6
20260505202919 60 259 1.7 8.7 0.00 0.00 0.00 5 1009.3
20260505202419 60 233 2.6 9.6 0.00 0.00 0.00 5 1009.3
20260505201919 60 227 4.3 9.6 0.00 0.00 0.00 5 1009.2
20260505201420 60 261 2.6 12.2 0.00 0.00 0.00 5 1009.3
20260505200919 60 304 4.3 11.3 0.00 0.00 0.00 5 1009.3
20260505200419 60 213 5.2 10.4 0.00 0.00 0.00 5 1009.1
20260505195919 61 234 3.5 11.3 0.00 0.00 0.00 5 1009.0
20260505195419 61 195 6.1 10.4 0.00 0.00 0.00 5 1009.3
20260505194919 61 281 5.2 10.4 0.00 0.00 0.00 5 1009.3
20260505194419 61 217 3.5 11.3 0.00 0.00 0.00 5 1009.1
20260505193919 62 283 3.5 13.0 0.00 0.00 0.00 5 1008.9
20260505193419 62 273 5.2 14.8 0.00 0.00 0.00 5 1008.9
20260505192919 62 258 1.7 10.4 0.00 0.00 0.00 5 1008.9
20260505192419 62 247 5.2 14.8 0.00 0.00 0.00 5 1009.1
20260505191919 62 234 3.5 9.6 0.00 0.00 0.00 5 1009.1
20260505191419 62 292 2.6 10.4 0.00 0.00 0.00 5 1009.2
20260505190919 63 264 5.2 10.4 0.00 0.00 0.00 5 1009.0
20260505190419 63 290 7.0 10.4 0.00 0.00 0.00 5 1008.8
20260505185919 63 263 1.7 7.8 0.00 0.00 0.00 5 1008.9
20260505185419 64 241 7.0 10.4 0.00 0.00 0.00 4 1008.8
20260505184919 64 249 5.2 9.6 0.00 0.00 0.00 4 1008.9
20260505184419 64 244 3.5 10.4 0.00 0.00 0.00 4 1008.5
20260505183919 65 253 6.1 8.7 0.00 0.00 0.00 4 1008.3
20260505183420 65 289 3.5 9.6 0.00 0.00 0.00 4 1008.5
20260505182918 65 325 4.3 8.7 0.00 0.00 0.00 4 1008.3
20260505182418 66 282 1.7 8.7 0.00 0.00 0.00 4 1008.5
20260505181918 66 258 0.9 5.2 0.00 0.00 0.00 4 1008.3
20260505181418 66 270 2.6 9.6 0.00 0.00 0.00 4 1008.2
20260505180918 66 221 3.5 9.6 0.00 0.00 0.00 4 1008.3
20260505180418 66 340 1.7 5.2 0.00 0.00 0.00 4 1008.5
20260505175918 66 271 1.7 9.6 0.00 0.00 0.00 4 1008.2
20260505175418 66 326 2.6 9.6 0.00 0.00 0.00 4 1008.2
20260505174918 66 280 1.7 9.6 0.00 0.00 0.00 4 1008.4
20260505174418 67 265 5.2 8.7 0.00 0.00 0.00 4 1008.1
20260505173918 67 231 1.7 8.7 0.00 0.00 0.00 4 1008.1
20260505173418 67 265 1.7 3.5 0.00 0.00 0.00 4 1008.3
20260505172918 67 273 0.9 8.7 0.00 0.00 0.00 4 1008.3
20260505172418 68 275 4.3 5.2 0.00 0.00 0.00 4 1008.3
20260505171918 68 214 2.6 7.8 0.00 0.00 0.00 4 1008.1
20260505171418 68 266 2.6 7.8 0.00 0.00 0.00 4 1008.1
20260505170918 69 249 2.6 5.2 0.00 0.00 0.00 4 1008.1
20260505170418 69 239 3.5 7.0 0.00 0.00 0.00 4 1008.0
20260505165918 69 232 3.5 5.2 0.00 0.00 0.00 4 1007.9
20260505165418 70 248 6.1 11.3 0.00 0.00 0.00 3 1008.1
20260505164918 70 259 2.6 9.6 0.00 0.00 0.00 3 1008.0
20260505164418 70 293 6.1 17.4 0.00 0.00 0.00 3 1007.8
20260505163918 71 292 3.5 9.6 0.00 0.00 0.00 3 1007.9
20260505163418 71 191 2.6 9.6 0.00 0.00 0.00 3 1007.9
20260505162918 71 136 5.2 5.2 0.00 0.00 0.00 3 1007.8
20260505162418 72 222 3.5 5.2 0.00 0.00 0.00 3 1007.8
20260505161918 72 219 6.1 13.0 0.00 0.00 0.00 3 1007.5
20260505161418 73 223 3.5 10.4 0.00 0.00 0.00 3 1007.6
20260505160918 73 294 5.2 7.0 0.00 0.00 0.00 3 1007.7
20260505160417 73 285 3.5 5.2 0.00 0.00 0.00 3 1007.9
20260505152917 72 164 8.7 18.2 0.00 0.00 0.00 3 1007.8
20260505152417 73 206 5.2 14.8 0.00 0.00 0.00 3 1008.1
20260505151917 72 183 9.6 14.8 0.00 0.00 0.00 3 1007.9
20260505151417 73 149 7.0 14.8 0.00 0.00 0.00 3 1008.1
20260505150917 73 202 6.1 12.2 0.00 0.00 0.00 3 1008.1
20260505150417 72 180 2.6 13.0 0.00 0.00 0.00 3 1008.0
20260505140417 73 189 10.4 14.8 0.00 0.00 0.00 3 1009.0
20260505124916 75 224 7.0 22.6 0.00 0.00 0.00 3 1008.8
20260505124416 75 174 7.8 16.5 0.00 0.00 0.00 3 1008.7
20260505123916 75 153 17.4 31.3 0.00 0.00 0.00 3 1009.1
20260505123416 74 178 4.3 11.3 0.00 0.00 0.00 3 1009.0
20260505122916 74 343 3.5 13.0 0.00 0.00 0.00 3 1009.3
20260505122417 74 172 8.7 14.8 0.00 0.00 0.00 3 1009.2
20260505121916 75 149 9.6 18.2 0.00 0.00 0.00 3 1009.4
20260505121416 75 132 6.1 16.5 0.00 0.00 0.00 3 1009.2
20260505120916 75 176 7.8 22.6 0.00 0.00 0.00 3 1009.3
20260505120416 75 151 9.6 22.6 0.00 0.00 0.00 3 1009.0
20260505115916 74 215 12.2 18.2 0.00 0.00 0.00 3 1009.1
20260505115416 74 153 10.4 21.7 0.00 0.00 0.00 3 1009.7
20260505114916 73 179 10.4 22.6 0.00 0.00 0.00 3 1009.3
20260505114416 73 175 12.2 16.5 0.00 0.00 0.00 3 1009.8
20260505113916 73 219 5.2 15.6 0.00 0.00 0.00 3 1009.7
20260505113416 73 155 12.2 15.6 0.00 0.00 0.00 3 1009.9
20260505112916 73 134 6.1 13.0 0.00 0.00 0.00 3 1009.6
20260505112416 74 141 8.7 15.6 0.00 0.00 0.00 3 1009.6
20260505111916 74 149 9.6 20.0 0.00 0.00 0.00 3 1009.6
20260505111416 73 140 4.3 12.2 0.00 0.00 0.00 3 1009.8
20260505110916 73 201 10.4 29.5 0.00 0.00 0.00 3 1010.1
20260505110416 73 154 9.6 14.8 0.00 0.00 0.00 3 1009.6